Year,Month,Day,Hour,Minute,Value (Times are PST for temperature in C)
2018,05,22,00,00,13.20
2018,05,22,00,01,13.10
2018,05,22,00,02,13.10
2018,05,22,00,03,13.10
2018,05,22,00,04,13.10
2018,05,22,00,05,13.00
2018,05,22,00,06,13.00
2018,05,22,00,07,13.00
2018,05,22,00,08,13.00
2018,05,22,00,09,13.00
2018,05,22,00,10,12.90
2018,05,22,00,11,12.90
2018,05,22,00,12,12.90
2018,05,22,00,13,12.90
2018,05,22,00,14,12.80
2018,05,22,00,15,12.80
2018,05,22,00,16,12.80
2018,05,22,00,17,12.80
2018,05,22,00,18,12.80
2018,05,22,00,19,12.80
2018,05,22,00,20,12.80
2018,05,22,00,21,12.80
2018,05,22,00,22,12.80
2018,05,22,00,23,12.80
2018,05,22,00,24,12.70
2018,05,22,00,25,12.70
2018,05,22,00,26,12.70
2018,05,22,00,27,12.70
2018,05,22,00,28,12.60
2018,05,22,00,29,12.60
2018,05,22,00,30,12.60
2018,05,22,00,31,12.60
2018,05,22,00,32,12.60
2018,05,22,00,33,12.50
2018,05,22,00,34,12.50
2018,05,22,00,35,12.50
2018,05,22,00,36,12.50
2018,05,22,00,37,12.50
2018,05,22,00,38,12.50
2018,05,22,00,39,12.40
2018,05,22,00,40,12.40
2018,05,22,00,41,12.40
2018,05,22,00,42,12.40
2018,05,22,00,43,12.40
2018,05,22,00,44,12.40
2018,05,22,00,45,12.40
2018,05,22,00,46,12.40
2018,05,22,00,47,12.30
2018,05,22,00,48,12.30
2018,05,22,00,49,12.30
2018,05,22,00,50,12.30
2018,05,22,00,51,12.30
2018,05,22,00,52,12.30
2018,05,22,00,53,12.30
2018,05,22,00,54,12.30
2018,05,22,00,55,12.30
2018,05,22,00,56,12.30
2018,05,22,00,57,12.30
2018,05,22,00,58,12.30
2018,05,22,00,59,12.30
2018,05,22,01,00,12.20
2018,05,22,01,01,12.20
2018,05,22,01,02,12.20
2018,05,22,01,03,12.20
2018,05,22,01,04,12.20
2018,05,22,01,05,12.20
2018,05,22,01,06,12.10
2018,05,22,01,07,12.10
2018,05,22,01,08,12.10
2018,05,22,01,09,12.10
2018,05,22,01,10,12.10
2018,05,22,01,11,12.10
2018,05,22,01,12,12.00
2018,05,22,01,13,12.00
2018,05,22,01,14,12.00
2018,05,22,01,15,12.00
2018,05,22,01,16,12.00
2018,05,22,01,17,12.00
2018,05,22,01,18,12.00
2018,05,22,01,19,11.90
2018,05,22,01,20,11.90
2018,05,22,01,21,11.90
2018,05,22,01,22,11.90
2018,05,22,01,23,11.90
2018,05,22,01,24,11.80
2018,05,22,01,25,11.80
2018,05,22,01,26,11.80
2018,05,22,01,27,11.80
2018,05,22,01,28,11.80
2018,05,22,01,29,11.80
2018,05,22,01,30,11.80
2018,05,22,01,31,11.80
2018,05,22,01,32,11.80
2018,05,22,01,33,11.80
2018,05,22,01,34,11.80
2018,05,22,01,35,11.80
2018,05,22,01,36,11.70
2018,05,22,01,37,11.70
2018,05,22,01,38,11.70
2018,05,22,01,39,11.70
2018,05,22,01,40,11.70
2018,05,22,01,41,11.70
2018,05,22,01,42,11.60
2018,05,22,01,43,11.60
2018,05,22,01,44,11.60
2018,05,22,01,45,11.60
2018,05,22,01,46,11.60
2018,05,22,01,47,11.60
2018,05,22,01,48,11.60
2018,05,22,01,49,11.60
2018,05,22,01,50,11.60
2018,05,22,01,51,11.60
2018,05,22,01,52,11.60
2018,05,22,01,53,11.60
2018,05,22,01,54,11.60
2018,05,22,01,55,11.50
2018,05,22,01,56,11.40
2018,05,22,01,57,11.40
2018,05,22,01,58,11.40
2018,05,22,01,59,11.40
2018,05,22,02,00,11.40
2018,05,22,02,01,11.40
2018,05,22,02,02,11.40
2018,05,22,02,03,11.40
2018,05,22,02,04,11.40
2018,05,22,02,05,11.40
2018,05,22,02,06,11.40
2018,05,22,02,07,11.30
2018,05,22,02,08,11.30
2018,05,22,02,09,11.30
2018,05,22,02,10,11.30
2018,05,22,02,11,11.20
2018,05,22,02,12,11.20
2018,05,22,02,13,11.20
2018,05,22,02,14,11.20
2018,05,22,02,15,11.20
2018,05,22,02,16,11.20
2018,05,22,02,17,11.20
2018,05,22,02,18,11.10
2018,05,22,02,19,11.10
2018,05,22,02,20,11.10
2018,05,22,02,21,11.10
2018,05,22,02,22,11.10
2018,05,22,02,23,11.10
2018,05,22,02,24,11.10
2018,05,22,02,25,11.10
2018,05,22,02,26,11.10
2018,05,22,02,27,11.10
2018,05,22,02,28,11.10
2018,05,22,02,29,11.10
2018,05,22,02,30,11.10
2018,05,22,02,31,11.10
2018,05,22,02,32,11.10
2018,05,22,02,33,11.10
2018,05,22,02,34,11.10
2018,05,22,02,35,11.10
2018,05,22,02,36,11.10
2018,05,22,02,37,10.90
2018,05,22,02,38,10.90
2018,05,22,02,39,10.90
2018,05,22,02,40,10.90
2018,05,22,02,41,10.90
2018,05,22,02,42,10.90
2018,05,22,02,43,10.90
2018,05,22,02,44,10.90
2018,05,22,02,45,10.90
2018,05,22,02,46,10.90
2018,05,22,02,47,10.90
2018,05,22,02,48,10.90
2018,05,22,02,49,10.90
2018,05,22,02,50,10.90
2018,05,22,02,51,10.90
2018,05,22,02,52,10.90
2018,05,22,02,53,10.90
2018,05,22,02,54,10.90
2018,05,22,02,55,10.90
2018,05,22,02,56,10.90
2018,05,22,02,57,10.90
2018,05,22,02,58,10.90
2018,05,22,02,59,10.80
2018,05,22,03,00,10.80
2018,05,22,03,01,10.80
2018,05,22,03,02,10.80
2018,05,22,03,03,10.80
2018,05,22,03,04,10.70
2018,05,22,03,05,10.70
2018,05,22,03,06,10.70
2018,05,22,03,07,10.70
2018,05,22,03,08,10.60
2018,05,22,03,09,10.60
2018,05,22,03,10,10.60
2018,05,22,03,11,10.60
2018,05,22,03,12,10.60
2018,05,22,03,13,10.60
2018,05,22,03,14,10.60
2018,05,22,03,15,10.60
2018,05,22,03,16,10.60
2018,05,22,03,17,10.60
2018,05,22,03,18,10.60
2018,05,22,03,19,10.60
2018,05,22,03,20,10.60
2018,05,22,03,21,10.60
2018,05,22,03,22,10.60
2018,05,22,03,23,10.60
2018,05,22,03,24,10.60
2018,05,22,03,25,10.60
2018,05,22,03,26,10.60
2018,05,22,03,27,10.60
2018,05,22,03,28,10.60
2018,05,22,03,29,10.60
2018,05,22,03,30,10.60
2018,05,22,03,31,10.60
2018,05,22,03,32,10.60
2018,05,22,03,33,10.60
2018,05,22,03,34,10.60
2018,05,22,03,35,10.60
2018,05,22,03,36,10.60
2018,05,22,03,37,10.60
2018,05,22,03,38,10.60
2018,05,22,03,39,10.60
2018,05,22,03,40,10.60
2018,05,22,03,41,10.60
2018,05,22,03,42,10.60
2018,05,22,03,43,10.60
2018,05,22,03,44,10.60
2018,05,22,03,45,10.60
2018,05,22,03,46,10.60
2018,05,22,03,47,10.60
2018,05,22,03,48,10.60
2018,05,22,03,49,10.60
2018,05,22,03,50,10.60
2018,05,22,03,51,10.60
2018,05,22,03,52,10.60
2018,05,22,03,53,10.60
2018,05,22,03,54,10.60
2018,05,22,03,55,10.60
2018,05,22,03,56,10.60
2018,05,22,03,57,10.60
2018,05,22,03,58,10.60
2018,05,22,03,59,10.60
2018,05,22,04,00,10.60
2018,05,22,04,01,10.50
2018,05,22,04,02,10.40
2018,05,22,04,03,10.40
2018,05,22,04,04,10.40
2018,05,22,04,05,10.40
2018,05,22,04,06,10.40
2018,05,22,04,07,10.40
2018,05,22,04,08,10.40
2018,05,22,04,09,10.40
2018,05,22,04,10,10.40
2018,05,22,04,11,10.40
2018,05,22,04,12,10.40
2018,05,22,04,13,10.30
2018,05,22,04,14,10.30
2018,05,22,04,15,10.30
2018,05,22,04,16,10.30
2018,05,22,04,17,10.30
2018,05,22,04,18,10.30
2018,05,22,04,19,10.30
2018,05,22,04,20,10.30
2018,05,22,04,21,10.30
2018,05,22,04,22,10.30
2018,05,22,04,23,10.20
2018,05,22,04,24,10.20
2018,05,22,04,25,10.20
2018,05,22,04,26,10.20
2018,05,22,04,27,10.20
2018,05,22,04,28,10.20
2018,05,22,04,29,10.20
2018,05,22,04,30,10.20
2018,05,22,04,31,10.20
2018,05,22,04,32,10.10
2018,05,22,04,33,10.10
2018,05,22,04,34,10.10
2018,05,22,04,35,10.10
2018,05,22,04,36,10.10
2018,05,22,04,37,10.10
2018,05,22,04,38,10.10
2018,05,22,04,39,10.10
2018,05,22,04,40,10.10
2018,05,22,04,41,10.10
2018,05,22,04,42,10.10
2018,05,22,04,43,10.10
2018,05,22,04,44,10.10
2018,05,22,04,45,10.10
2018,05,22,04,46,10.10
2018,05,22,04,47,10.10
2018,05,22,04,48,10.10
2018,05,22,04,49,10.10
2018,05,22,04,50,10.10
2018,05,22,04,51,10.10
2018,05,22,04,52,10.10
2018,05,22,04,53,10.10
2018,05,22,04,54,10.10
2018,05,22,04,55,10.10
2018,05,22,04,56,10.10
2018,05,22,04,57,10.10
2018,05,22,04,58,10.10
2018,05,22,04,59,10.10
2018,05,22,05,00,10.10
2018,05,22,05,01,10.10
2018,05,22,05,02,10.10
2018,05,22,05,03,10.10
2018,05,22,05,04,10.10
2018,05,22,05,05,10.10
2018,05,22,05,06,10.10
2018,05,22,05,07,10.10
2018,05,22,05,08,10.20
2018,05,22,05,09,10.20
2018,05,22,05,10,10.20
2018,05,22,05,11,10.20
2018,05,22,05,12,10.20
2018,05,22,05,13,10.20
2018,05,22,05,14,10.20
2018,05,22,05,15,10.20
2018,05,22,05,16,10.20
2018,05,22,05,17,10.20
2018,05,22,05,18,10.20
2018,05,22,05,19,10.20
2018,05,22,05,20,10.20
2018,05,22,05,21,10.20
2018,05,22,05,22,10.20
2018,05,22,05,23,10.20
2018,05,22,05,24,10.20
2018,05,22,05,25,10.20
2018,05,22,05,26,10.20
2018,05,22,05,27,10.20
2018,05,22,05,28,10.20
2018,05,22,05,29,10.20
2018,05,22,05,30,10.20
2018,05,22,05,31,10.20
2018,05,22,05,32,10.20
2018,05,22,05,33,10.20
2018,05,22,05,34,10.20
2018,05,22,05,35,10.20
2018,05,22,05,36,10.30
2018,05,22,05,37,10.30
2018,05,22,05,38,10.30
2018,05,22,05,39,10.30
2018,05,22,05,40,10.30
2018,05,22,05,41,10.30
2018,05,22,05,42,10.30
2018,05,22,05,43,10.30
2018,05,22,05,44,10.40
2018,05,22,05,45,10.40
2018,05,22,05,46,10.40
2018,05,22,05,47,10.40
2018,05,22,05,48,10.40
2018,05,22,05,49,10.40
2018,05,22,05,50,10.40
2018,05,22,05,51,10.40
2018,05,22,05,52,10.40
2018,05,22,05,53,10.40
2018,05,22,05,54,10.30
2018,05,22,05,55,10.30
2018,05,22,05,56,10.30
2018,05,22,05,57,10.30
2018,05,22,05,58,10.30
2018,05,22,05,59,10.30
2018,05,22,06,00,10.30
2018,05,22,06,01,10.20
2018,05,22,06,02,10.20
2018,05,22,06,03,10.20
2018,05,22,06,04,10.30
2018,05,22,06,05,10.30
2018,05,22,06,06,10.30
2018,05,22,06,07,10.30
2018,05,22,06,08,10.30
2018,05,22,06,09,10.30
2018,05,22,06,10,10.30
2018,05,22,06,11,10.20
2018,05,22,06,12,10.20
2018,05,22,06,13,10.20
2018,05,22,06,14,10.20
2018,05,22,06,15,10.20
2018,05,22,06,16,10.20
2018,05,22,06,17,10.20
2018,05,22,06,18,10.20
2018,05,22,06,19,10.20
2018,05,22,06,20,10.20
2018,05,22,06,21,10.20
2018,05,22,06,22,10.20
2018,05,22,06,23,10.30
2018,05,22,06,24,10.30
2018,05,22,06,25,10.30
2018,05,22,06,26,10.30
2018,05,22,06,27,10.30
2018,05,22,06,28,10.20
2018,05,22,06,29,10.20
2018,05,22,06,30,10.20
2018,05,22,06,31,10.20
2018,05,22,06,32,10.20
2018,05,22,06,33,10.20
2018,05,22,06,34,10.20
2018,05,22,06,35,10.30
2018,05,22,06,36,10.30
2018,05,22,06,37,10.30
2018,05,22,06,38,10.30
2018,05,22,06,39,10.30
2018,05,22,06,40,10.30
2018,05,22,06,41,10.30
2018,05,22,06,42,10.30
2018,05,22,06,43,10.30
2018,05,22,06,44,10.30
2018,05,22,06,45,10.30
2018,05,22,06,46,10.30
2018,05,22,06,47,10.40
2018,05,22,06,48,10.40
2018,05,22,06,49,10.40
2018,05,22,06,50,10.40
2018,05,22,06,51,10.50
2018,05,22,06,52,10.60
2018,05,22,06,53,10.60
2018,05,22,06,54,10.60
2018,05,22,06,55,10.60
2018,05,22,06,56,10.60
2018,05,22,06,57,10.70
2018,05,22,06,58,10.80
2018,05,22,06,59,10.90
2018,05,22,07,00,10.90
2018,05,22,07,01,10.90
2018,05,22,07,02,11.00
2018,05,22,07,03,11.10
2018,05,22,07,04,11.10
2018,05,22,07,05,11.20
2018,05,22,07,06,11.20
2018,05,22,07,07,11.30
2018,05,22,07,08,11.30
2018,05,22,07,09,11.30
2018,05,22,07,10,11.30
2018,05,22,07,11,11.40
2018,05,22,07,12,11.40
2018,05,22,07,13,11.40
2018,05,22,07,14,11.40
2018,05,22,07,15,11.40
2018,05,22,07,16,11.40
2018,05,22,07,17,11.40
2018,05,22,07,18,11.40
2018,05,22,07,19,11.40
2018,05,22,07,20,11.40
2018,05,22,07,21,11.40
2018,05,22,07,22,11.40
2018,05,22,07,23,11.40
2018,05,22,07,24,11.50
2018,05,22,07,25,11.60
2018,05,22,07,26,11.60
2018,05,22,07,27,11.60
2018,05,22,07,28,11.60
2018,05,22,07,29,11.60
2018,05,22,07,30,11.60
2018,05,22,07,31,11.60
2018,05,22,07,32,11.70
2018,05,22,07,33,11.70
2018,05,22,07,34,11.70
2018,05,22,07,35,11.70
2018,05,22,07,36,11.70
2018,05,22,07,37,11.70
2018,05,22,07,38,11.70
2018,05,22,07,39,11.70
2018,05,22,07,40,11.70
2018,05,22,07,41,11.80
2018,05,22,07,42,11.80
2018,05,22,07,43,11.80
2018,05,22,07,44,11.80
2018,05,22,07,45,11.90
2018,05,22,07,46,12.00
2018,05,22,07,47,12.00
2018,05,22,07,48,12.00
2018,05,22,07,49,12.00
2018,05,22,07,50,12.00
2018,05,22,07,51,12.00
2018,05,22,07,52,12.00
2018,05,22,07,53,12.00
2018,05,22,07,54,12.00
2018,05,22,07,55,12.00
2018,05,22,07,56,12.00
2018,05,22,07,57,12.00
2018,05,22,07,58,12.00
2018,05,22,07,59,12.10
2018,05,22,08,00,12.10
2018,05,22,08,01,12.20
2018,05,22,08,02,12.20
2018,05,22,08,03,12.20
2018,05,22,08,04,12.20
2018,05,22,08,05,12.30
2018,05,22,08,06,12.30
2018,05,22,08,07,12.30
2018,05,22,08,08,12.40
2018,05,22,08,09,12.50
2018,05,22,08,10,12.50
2018,05,22,08,11,12.60
2018,05,22,08,12,12.70
2018,05,22,08,13,12.80
2018,05,22,08,14,12.80
2018,05,22,08,15,12.80
2018,05,22,08,16,12.80
2018,05,22,08,17,12.90
2018,05,22,08,18,12.90
2018,05,22,08,19,12.90
2018,05,22,08,20,12.80
2018,05,22,08,21,12.80
2018,05,22,08,22,12.80
2018,05,22,08,23,12.80
2018,05,22,08,24,12.80
2018,05,22,08,25,12.80
2018,05,22,08,26,12.80
2018,05,22,08,27,13.00
2018,05,22,08,28,13.00
2018,05,22,08,29,13.10
2018,05,22,08,30,13.20
2018,05,22,08,31,13.20
2018,05,22,08,32,13.30
2018,05,22,08,33,13.30
2018,05,22,08,34,13.40
2018,05,22,08,35,13.40
2018,05,22,08,36,13.40
2018,05,22,08,37,13.40
2018,05,22,08,38,13.40
2018,05,22,08,39,13.40
2018,05,22,08,40,13.40
2018,05,22,08,41,13.50
2018,05,22,08,42,13.50
2018,05,22,08,43,13.60
2018,05,22,08,44,13.70
2018,05,22,08,45,13.70
2018,05,22,08,46,13.60
2018,05,22,08,47,13.60
2018,05,22,08,48,13.60
2018,05,22,08,49,13.70
2018,05,22,08,50,13.70
2018,05,22,08,51,13.80
2018,05,22,08,52,13.90
2018,05,22,08,53,13.90
2018,05,22,08,54,14.00
2018,05,22,08,55,14.00
2018,05,22,08,56,14.10
2018,05,22,08,57,14.20
2018,05,22,08,58,14.20
2018,05,22,08,59,14.20
2018,05,22,09,00,14.20
2018,05,22,09,01,14.10
2018,05,22,09,02,14.00
2018,05,22,09,03,14.00
2018,05,22,09,04,14.00
2018,05,22,09,05,13.90
2018,05,22,09,06,13.90
2018,05,22,09,07,13.80
2018,05,22,09,08,13.70
2018,05,22,09,09,13.60
2018,05,22,09,10,13.70
2018,05,22,09,11,13.60
2018,05,22,09,12,13.60
2018,05,22,09,13,13.60
2018,05,22,09,14,13.60
2018,05,22,09,15,13.60
2018,05,22,09,16,13.70
2018,05,22,09,17,13.90
2018,05,22,09,18,14.00
2018,05,22,09,19,14.10
2018,05,22,09,20,14.20
2018,05,22,09,21,14.20
2018,05,22,09,22,14.20
2018,05,22,09,23,14.20
2018,05,22,09,24,14.30
2018,05,22,09,25,14.50
2018,05,22,09,26,14.60
2018,05,22,09,27,14.70
2018,05,22,09,28,14.70
2018,05,22,09,29,14.70
2018,05,22,09,30,14.70
2018,05,22,09,31,14.80
2018,05,22,09,32,14.80
2018,05,22,09,33,15.00
2018,05,22,09,34,15.10
2018,05,22,09,35,15.20
2018,05,22,09,36,15.30
2018,05,22,09,37,15.30
2018,05,22,09,38,15.40
2018,05,22,09,39,15.40
2018,05,22,09,40,15.50
2018,05,22,09,41,15.50
2018,05,22,09,42,15.60
2018,05,22,09,43,15.60
2018,05,22,09,44,15.60
2018,05,22,09,45,15.70
2018,05,22,09,46,15.70
2018,05,22,09,47,15.70
2018,05,22,09,48,15.70
2018,05,22,09,49,15.80
2018,05,22,09,50,15.80
2018,05,22,09,51,15.90
2018,05,22,09,52,15.90
2018,05,22,09,53,16.00
2018,05,22,09,54,16.10
2018,05,22,09,55,16.10
2018,05,22,09,56,16.10
2018,05,22,09,57,16.10
2018,05,22,09,58,16.10
2018,05,22,09,59,16.10
2018,05,22,10,00,16.20
2018,05,22,10,01,16.30
2018,05,22,10,02,16.30
2018,05,22,10,03,16.40
2018,05,22,10,04,16.40
2018,05,22,10,05,16.40
2018,05,22,10,06,16.40
2018,05,22,10,07,16.40
2018,05,22,10,08,16.30
2018,05,22,10,09,16.30
2018,05,22,10,10,16.20
2018,05,22,10,11,16.20
2018,05,22,10,12,16.20
2018,05,22,10,13,16.10
2018,05,22,10,14,16.10
2018,05,22,10,15,16.10
2018,05,22,10,16,16.10
2018,05,22,10,17,16.10
2018,05,22,10,18,16.10
2018,05,22,10,19,16.10
2018,05,22,10,20,16.20
2018,05,22,10,21,16.30
2018,05,22,10,22,16.40
2018,05,22,10,23,16.40
2018,05,22,10,24,16.60
2018,05,22,10,25,16.50
2018,05,22,10,26,16.60
2018,05,22,10,27,16.60
2018,05,22,10,28,16.70
2018,05,22,10,29,16.80
2018,05,22,10,30,16.90
2018,05,22,10,31,16.80
2018,05,22,10,32,16.70
2018,05,22,10,33,16.70
2018,05,22,10,34,16.70
2018,05,22,10,35,16.60
2018,05,22,10,36,16.60
2018,05,22,10,37,16.60
2018,05,22,10,38,16.60
2018,05,22,10,39,16.50
2018,05,22,10,40,16.40
2018,05,22,10,41,16.40
2018,05,22,10,42,16.40
2018,05,22,10,43,16.40
2018,05,22,10,44,16.40
2018,05,22,10,45,16.60
2018,05,22,10,46,16.70
2018,05,22,10,47,16.70
2018,05,22,10,48,16.70
2018,05,22,10,49,16.70
2018,05,22,10,50,16.70
2018,05,22,10,51,16.60
2018,05,22,10,52,16.50
2018,05,22,10,53,16.40
2018,05,22,10,54,16.40
2018,05,22,10,55,16.60
2018,05,22,10,56,16.70
2018,05,22,10,57,16.60
2018,05,22,10,58,16.60
2018,05,22,10,59,16.50
2018,05,22,11,00,16.40
2018,05,22,11,01,16.40
2018,05,22,11,02,16.50
2018,05,22,11,03,16.40
2018,05,22,11,04,16.40
2018,05,22,11,05,16.50
2018,05,22,11,06,16.60
2018,05,22,11,07,16.70
2018,05,22,11,08,16.70
2018,05,22,11,09,16.80
2018,05,22,11,10,16.90
2018,05,22,11,11,16.90
2018,05,22,11,12,16.90
2018,05,22,11,13,17.00
2018,05,22,11,14,17.00
2018,05,22,11,15,16.90
2018,05,22,11,16,16.90
2018,05,22,11,17,16.80
2018,05,22,11,18,16.80
2018,05,22,11,19,16.80
2018,05,22,11,20,16.70
2018,05,22,11,21,16.70
2018,05,22,11,22,16.70
2018,05,22,11,23,16.70
2018,05,22,11,24,16.70
2018,05,22,11,25,16.70
2018,05,22,11,26,16.70
2018,05,22,11,27,16.80
2018,05,22,11,28,16.80
2018,05,22,11,29,16.80
2018,05,22,11,30,16.90
2018,05,22,11,31,16.90
2018,05,22,11,32,17.00
2018,05,22,11,33,17.10
2018,05,22,11,34,17.10
2018,05,22,11,35,17.20
2018,05,22,11,36,17.30
2018,05,22,11,37,17.30
2018,05,22,11,38,17.30
2018,05,22,11,39,17.40
2018,05,22,11,40,17.40
2018,05,22,11,41,17.50
2018,05,22,11,42,17.60
2018,05,22,11,43,17.60
2018,05,22,11,44,17.70
2018,05,22,11,45,17.70
2018,05,22,11,46,17.80
2018,05,22,11,47,17.90
2018,05,22,11,48,17.90
2018,05,22,11,49,17.90
2018,05,22,11,50,17.90
2018,05,22,11,51,17.80
2018,05,22,11,52,17.80
2018,05,22,11,53,17.80
2018,05,22,11,54,17.90
2018,05,22,11,55,17.90
2018,05,22,11,56,17.90
2018,05,22,11,57,17.90
2018,05,22,11,58,17.90
2018,05,22,11,59,18.10
2018,05,22,12,00,18.20
2018,05,22,12,01,18.20
2018,05,22,12,02,18.30
2018,05,22,12,03,18.30
2018,05,22,12,04,18.20
2018,05,22,12,05,18.20
2018,05,22,12,06,18.20
2018,05,22,12,07,18.20
2018,05,22,12,08,18.30
2018,05,22,12,09,18.30
2018,05,22,12,10,18.30
2018,05,22,12,11,18.40
2018,05,22,12,12,18.50
2018,05,22,12,13,18.40
2018,05,22,12,14,18.40
2018,05,22,12,15,18.30
2018,05,22,12,16,18.30
2018,05,22,12,17,18.40
2018,05,22,12,18,18.40
2018,05,22,12,19,18.40
2018,05,22,12,20,18.40
2018,05,22,12,21,18.50
2018,05,22,12,22,18.60
2018,05,22,12,23,18.70
2018,05,22,12,24,18.60
2018,05,22,12,25,18.60
2018,05,22,12,26,18.60
2018,05,22,12,27,18.70
2018,05,22,12,28,18.60
2018,05,22,12,29,18.50
2018,05,22,12,30,18.40
2018,05,22,12,31,18.30
2018,05,22,12,32,18.20
2018,05,22,12,33,18.10
2018,05,22,12,34,18.00
2018,05,22,12,35,17.90
2018,05,22,12,36,17.90
2018,05,22,12,37,17.90
2018,05,22,12,38,17.90
2018,05,22,12,39,17.80
2018,05,22,12,40,17.60
2018,05,22,12,41,17.50
2018,05,22,12,42,17.60
2018,05,22,12,43,17.50
2018,05,22,12,44,17.40
2018,05,22,12,45,17.30
2018,05,22,12,46,17.00
2018,05,22,12,47,16.90
2018,05,22,12,48,16.80
2018,05,22,12,49,16.70
2018,05,22,12,50,16.60
2018,05,22,12,51,16.50
2018,05,22,12,52,16.50
2018,05,22,12,53,16.70
2018,05,22,12,54,16.80
2018,05,22,12,55,16.90
2018,05,22,12,56,16.90
2018,05,22,12,57,17.00
2018,05,22,12,58,17.10
2018,05,22,12,59,17.20
2018,05,22,13,00,17.30
2018,05,22,13,01,17.40
2018,05,22,13,02,17.50
2018,05,22,13,03,17.70
2018,05,22,13,04,17.80
2018,05,22,13,05,17.80
2018,05,22,13,06,17.90
2018,05,22,13,07,17.90
2018,05,22,13,08,17.90
2018,05,22,13,09,17.90
2018,05,22,13,10,17.90
2018,05,22,13,11,18.00
2018,05,22,13,12,18.10
2018,05,22,13,13,18.10
2018,05,22,13,14,18.00
2018,05,22,13,15,17.90
2018,05,22,13,16,17.90
2018,05,22,13,17,17.90
2018,05,22,13,18,17.90
2018,05,22,13,19,17.90
2018,05,22,13,20,18.00
2018,05,22,13,21,18.10
2018,05,22,13,22,18.10
2018,05,22,13,23,18.20
2018,05,22,13,24,18.20
2018,05,22,13,25,18.20
2018,05,22,13,26,18.20
2018,05,22,13,27,18.20
2018,05,22,13,28,18.10
2018,05,22,13,29,18.10
2018,05,22,13,30,18.20
2018,05,22,13,31,18.20
2018,05,22,13,32,18.30
2018,05,22,13,33,18.40
2018,05,22,13,34,18.50
2018,05,22,13,35,18.60
2018,05,22,13,36,18.50
2018,05,22,13,37,18.60
2018,05,22,13,38,18.60
2018,05,22,13,39,18.70
2018,05,22,13,40,18.80
2018,05,22,13,41,18.90
2018,05,22,13,42,18.90
2018,05,22,13,43,18.90
2018,05,22,13,44,18.90
2018,05,22,13,45,18.90
2018,05,22,13,46,19.10
2018,05,22,13,47,19.10
2018,05,22,13,48,19.10
2018,05,22,13,49,19.10
2018,05,22,13,50,19.10
2018,05,22,13,51,19.10
2018,05,22,13,52,19.10
2018,05,22,13,53,19.10
2018,05,22,13,54,19.00
2018,05,22,13,55,18.90
2018,05,22,13,56,18.90
2018,05,22,13,57,18.90
2018,05,22,13,58,18.90
2018,05,22,13,59,18.80
2018,05,22,14,00,18.80
2018,05,22,14,01,18.80
2018,05,22,14,02,18.80
2018,05,22,14,03,18.90
2018,05,22,14,04,19.00
2018,05,22,14,05,19.10
2018,05,22,14,06,19.20
2018,05,22,14,07,19.30
2018,05,22,14,08,19.40
2018,05,22,14,09,19.50
2018,05,22,14,10,19.60
2018,05,22,14,11,19.70
2018,05,22,14,12,19.90
2018,05,22,14,13,19.80
2018,05,22,14,14,19.80
2018,05,22,14,15,19.70
2018,05,22,14,16,19.70
2018,05,22,14,17,19.70
2018,05,22,14,18,19.80
2018,05,22,14,19,19.80
2018,05,22,14,20,19.80
2018,05,22,14,21,19.90
2018,05,22,14,22,19.90
2018,05,22,14,23,20.10
2018,05,22,14,24,20.10
2018,05,22,14,25,20.10
2018,05,22,14,26,20.10
2018,05,22,14,27,20.10
2018,05,22,14,28,20.10
2018,05,22,14,29,20.10
2018,05,22,14,30,20.10
2018,05,22,14,31,20.10
2018,05,22,14,32,20.10
2018,05,22,14,33,20.00
2018,05,22,14,34,19.90
2018,05,22,14,35,20.00
2018,05,22,14,36,20.10
2018,05,22,14,37,20.10
2018,05,22,14,38,20.00
2018,05,22,14,39,19.90
2018,05,22,14,40,19.80
2018,05,22,14,41,19.70
2018,05,22,14,42,19.60
2018,05,22,14,43,19.60
2018,05,22,14,44,19.60
2018,05,22,14,45,19.60
2018,05,22,14,46,19.60
2018,05,22,14,47,19.60
2018,05,22,14,48,19.60
2018,05,22,14,49,19.60
2018,05,22,14,50,19.70
2018,05,22,14,51,19.70
2018,05,22,14,52,19.70
2018,05,22,14,53,19.80
2018,05,22,14,54,19.80
2018,05,22,14,55,19.90
2018,05,22,14,56,19.90
2018,05,22,14,57,20.00
2018,05,22,14,58,20.10
2018,05,22,14,59,20.10
2018,05,22,15,00,20.20
2018,05,22,15,01,20.20
2018,05,22,15,02,20.20
2018,05,22,15,03,20.20
2018,05,22,15,04,20.20
2018,05,22,15,05,20.20
2018,05,22,15,06,20.20
2018,05,22,15,07,20.20
2018,05,22,15,08,20.20
2018,05,22,15,09,20.20
2018,05,22,15,10,20.20
2018,05,22,15,11,20.30
2018,05,22,15,12,20.20
2018,05,22,15,13,20.30
2018,05,22,15,14,20.30
2018,05,22,15,15,20.40
2018,05,22,15,16,20.50
2018,05,22,15,17,20.50
2018,05,22,15,18,20.50
2018,05,22,15,19,20.60
2018,05,22,15,20,20.60
2018,05,22,15,21,20.60
2018,05,22,15,22,20.60
2018,05,22,15,23,20.60
2018,05,22,15,24,20.50
2018,05,22,15,25,20.50
2018,05,22,15,26,20.50
2018,05,22,15,27,20.50
2018,05,22,15,28,20.50
2018,05,22,15,29,20.50
2018,05,22,15,30,20.50
2018,05,22,15,31,20.50
2018,05,22,15,32,20.60
2018,05,22,15,33,20.70
2018,05,22,15,34,20.70
2018,05,22,15,35,20.80
2018,05,22,15,36,20.70
2018,05,22,15,37,20.60
2018,05,22,15,38,20.50
2018,05,22,15,39,20.50
2018,05,22,15,40,20.40
2018,05,22,15,41,20.40
2018,05,22,15,42,20.40
2018,05,22,15,43,20.40
2018,05,22,15,44,20.40
2018,05,22,15,45,20.40
2018,05,22,15,46,20.40
2018,05,22,15,47,20.40
2018,05,22,15,48,20.40
2018,05,22,15,49,20.30
2018,05,22,15,50,20.20
2018,05,22,15,51,20.20
2018,05,22,15,52,20.20
2018,05,22,15,53,20.20
2018,05,22,15,54,20.20
2018,05,22,15,55,20.10
2018,05,22,15,56,20.10
2018,05,22,15,57,20.10
2018,05,22,15,58,20.10
2018,05,22,15,59,20.10
2018,05,22,16,00,20.20
2018,05,22,16,01,20.20
2018,05,22,16,02,20.30
2018,05,22,16,03,20.50
2018,05,22,16,04,20.50
2018,05,22,16,05,20.50
2018,05,22,16,06,20.60
2018,05,22,16,07,20.50
2018,05,22,16,08,20.50
2018,05,22,16,09,20.50
2018,05,22,16,10,20.50
2018,05,22,16,11,20.40
2018,05,22,16,12,20.40
2018,05,22,16,13,20.30
2018,05,22,16,14,20.20
2018,05,22,16,15,20.20
2018,05,22,16,16,20.20
2018,05,22,16,17,20.20
2018,05,22,16,18,20.10
2018,05,22,16,19,20.10
2018,05,22,16,20,20.00
2018,05,22,16,21,19.90
2018,05,22,16,22,19.90
2018,05,22,16,23,19.90
2018,05,22,16,24,19.90
2018,05,22,16,25,20.00
2018,05,22,16,26,20.10
2018,05,22,16,27,20.10
2018,05,22,16,28,20.10
2018,05,22,16,29,20.20
2018,05,22,16,30,20.20
2018,05,22,16,31,20.30
2018,05,22,16,32,20.40
2018,05,22,16,33,20.50
2018,05,22,16,34,20.50
2018,05,22,16,35,20.50
2018,05,22,16,36,20.50
2018,05,22,16,37,20.50
2018,05,22,16,38,20.60
2018,05,22,16,39,20.60
2018,05,22,16,40,20.60
2018,05,22,16,41,20.50
2018,05,22,16,42,20.50
2018,05,22,16,43,20.40
2018,05,22,16,44,20.50
2018,05,22,16,45,20.50
2018,05,22,16,46,20.50
2018,05,22,16,47,20.60
2018,05,22,16,48,20.60
2018,05,22,16,49,20.60
2018,05,22,16,50,20.60
2018,05,22,16,51,20.60
2018,05,22,16,52,20.60
2018,05,22,16,53,20.60
2018,05,22,16,54,20.60
2018,05,22,16,55,20.70
2018,05,22,16,56,20.70
2018,05,22,16,57,20.80
2018,05,22,16,58,20.80
2018,05,22,16,59,20.70
2018,05,22,17,00,20.70
2018,05,22,17,01,20.70
2018,05,22,17,02,20.80
2018,05,22,17,03,21.00
2018,05,22,17,04,21.10
2018,05,22,17,05,21.30
2018,05,22,17,06,21.40
2018,05,22,17,07,21.60
2018,05,22,17,08,21.70
2018,05,22,17,09,21.90
2018,05,22,17,10,22.00
2018,05,22,17,11,22.10
2018,05,22,17,12,22.20
2018,05,22,17,13,22.30
2018,05,22,17,14,22.40
2018,05,22,17,15,22.50
2018,05,22,17,16,22.70
2018,05,22,17,17,22.80
2018,05,22,17,18,22.80
2018,05,22,17,19,22.60